Regional Weather Roundup
Issued by NWS

Home | Current Version | Previous Version | Graphics & Text | Print | Product List | Glossary Off
Versions: 1 2 3 4 5 6 7 8 9 10 11 12 13 14 15 16 17 18 19 20 21 22 23 24 25 26 27 28 29 30 31 32 33 34 35 36 37 38 39 40 41 42 43 44 45 46 47 48 49 50

000
ASUS43 KFSD 052302
RWRSD

WEATHER ROUNDUP FOR SOUTH DAKOTA
NATIONAL WEATHER SERVICE SIOUX FALLS SD
500 PM CST MON DEC 05 2016

NOTE: "FAIR" INDICATES FEW OR NO CLOUDS BELOW 12,000 FEET WITH NO
SIGNIFICANT WEATHER AND/OR OBSTRUCTIONS TO VISIBILITY.


SDZ001>005-009-010-012>017-060000-
NORTHWEST AND NORTH CENTRAL SOUTH DAKOTA

CITY           SKY/WX    TMP DP  RH WIND       PRES   REMARKS
BUFFALO          N/A     16   7  67 NW36G47   29.72R WCI  -6
FAITH            N/A     19  16  88 NW36G45   29.72R WCI  -1
MOBRIDGE       HVY SNOW  24  19  81 NW37G47   29.61S VSB 1/4 WCI   5
$$

SDZ012>016-024>037-041>051-057-063-072>074-060000-
SOUTHWEST AND SOUTH CENTRAL SOUTH DAKOTA

CITY           SKY/WX    TMP DP  RH WIND       PRES   REMARKS
RAPID CTY ARPT MOCLDY    24  10  55 NW23G35   29.79R WCI   9
PIERRE         SNOW      26  22  84 NW29G41   29.72R VSB 1/4 WCI  10
CUSTER         MOCLDY    15   3  59 W10       29.69R WCI   2
ELLSWORTH AFB  FLURRIES  24  13  62 NW22G29   29.79R WCI   9
PINE RIDGE     LGT SNOW  23  22  96 NW9       29.81R VSB 3/4 WCI  13
SPEARFISH      LGT SNOW  19  12  73 W20G36    29.80R WCI   4
WINNER         LGT SNOW  28  23  81 NW29G44   29.73R WCI  12
$$

SDZ004>011-016>023-039-040-060000-
NORTHEAST SOUTH DAKOTA

CITY           SKY/WX    TMP DP  RH WIND       PRES   REMARKS
ABERDEEN       CLOUDY    33  28  81 W18G25    29.51R WCI  22
WATERTOWN      MOCLDY    34  30  85 SW15      29.48R WCI  24
SISSETON         N/A     34  32  92 S6        29.46F WCI  29
$$

SDZ017-020-022-023-036>040-048>070-060000-
SOUTHEAST SOUTH DAKOTA

CITY           SKY/WX    TMP DP  RH WIND       PRES   REMARKS
SIOUX FALLS    MOCLDY    39  32  76 W15G31    29.59R
HURON          CLOUDY    33  28  81 NW24G36   29.59R WCI  20
MITCHELL       CLOUDY    35  29  78 NW23G32   29.65R WCI  23
YANKTON        CLOUDY   N/A N/A N/A W21G30    29.65R
$$

ABBREVIATIONS USED IN REMARKS
   TC - TEMPERATURE IN CELSIUS
  WCI - WIND CHILL INDEX
   HX - HEAT INDEX
  VSB - VISIBILITY





USA.gov is the U.S. government's official web portal to all federal, state and local government web resources and services.